TimeEST,TemperatureF,Dew PointF,Humidity,Sea Level PressureIn,VisibilityMPH,Wind Direction,Wind SpeedMPH,Gust SpeedMPH,PrecipitationIn,Events,Conditions,WindDirDegrees,DateUTC
12:00 AM,47.3,-9999,N/A,30.19,-9999.0,North,-9999.0,-,N/A,,Unknown,0,2012-11-22 05:00:00
1:00 AM,48,,,30.18,,Calm,Calm,,,,,,2012-11-22 06:00:00
1:00 AM,48.2,-9999,N/A,30.18,-9999.0,North,-9999.0,-,N/A,,Unknown,0,2012-11-22 06:00:00
2:00 AM,48.4,-9999,N/A,30.17,-9999.0,North,-9999.0,-,N/A,,Unknown,0,2012-11-22 07:00:00
3:00 AM,48.6,-9999,N/A,30.17,-9999.0,North,-9999.0,-,N/A,,Unknown,0,2012-11-22 08:00:00
4:00 AM,49.1,-9999,N/A,30.16,-9999.0,North,-9999.0,-,N/A,,Unknown,0,2012-11-22 09:00:00
5:00 AM,49.5,-9999,N/A,30.16,-9999.0,North,-9999.0,-,N/A,,Unknown,0,2012-11-22 10:00:00
6:00 AM,49.5,-9999,N/A,30.16,-9999.0,North,-9999.0,-,N/A,,Unknown,0,2012-11-22 11:00:00
7:00 AM,49,,,30.15,,Calm,Calm,,,,,,2012-11-22 12:00:00
7:00 AM,49.1,-9999,N/A,30.15,-9999.0,North,-9999.0,-,N/A,,Unknown,0,2012-11-22 12:00:00
8:00 AM,49.1,-9999,N/A,30.16,-9999.0,North,-9999.0,-,N/A,,Unknown,0,2012-11-22 13:00:00
9:00 AM,49.3,-9999,N/A,30.16,-9999.0,North,-9999.0,-,N/A,,Unknown,0,2012-11-22 14:00:00
10:00 AM,49.6,-9999,N/A,30.15,-9999.0,North,-9999.0,-,N/A,,Unknown,0,2012-11-22 15:00:00
11:00 AM,50.2,-9999,N/A,30.14,-9999.0,North,-9999.0,-,N/A,,Unknown,0,2012-11-22 16:00:00
12:00 PM,51.3,-9999,N/A,30.12,-9999.0,North,-9999.0,-,N/A,,Unknown,0,2012-11-22 17:00:00
1:00 PM,52,,,30.10,,Calm,Calm,,,,,,2012-11-22 18:00:00
1:00 PM,52.0,-9999,N/A,30.10,-9999.0,North,-9999.0,-,N/A,,Unknown,0,2012-11-22 18:00:00
2:00 PM,52.9,-9999,N/A,30.08,-9999.0,North,-9999.0,-,N/A,,Unknown,0,2012-11-22 19:00:00
3:00 PM,54.1,-9999,N/A,30.06,-9999.0,North,-9999.0,-,N/A,,Unknown,0,2012-11-22 20:00:00
4:00 PM,55.9,-9999,N/A,30.05,-9999.0,North,-9999.0,-,N/A,,Unknown,0,2012-11-22 21:00:00
5:00 PM,55.9,-9999,N/A,30.04,-9999.0,North,-9999.0,-,N/A,,Unknown,0,2012-11-22 22:00:00
6:00 PM,54.0,-9999,N/A,30.02,-9999.0,North,-9999.0,-,N/A,,Unknown,0,2012-11-22 23:00:00
7:00 PM,55,,,30.00,,Calm,Calm,,,,,,2012-11-23 00:00:00
7:00 PM,54.9,-9999,N/A,30.00,-9999.0,North,-9999.0,-,N/A,,Unknown,0,2012-11-23 00:00:00
8:00 PM,53.8,-9999,N/A,29.97,-9999.0,North,-9999.0,-,N/A,,Unknown,0,2012-11-23 01:00:00
9:00 PM,53.2,-9999,N/A,29.95,-9999.0,North,-9999.0,-,N/A,,Unknown,0,2012-11-23 02:00:00
10:00 PM,53.1,-9999,N/A,29.93,-9999.0,North,-9999.0,-,N/A,,Unknown,0,2012-11-23 03:00:00
11:00 PM,53.1,-9999,N/A,29.92,-9999.0,North,-9999.0,-,N/A,,Unknown,0,2012-11-23 04:00:00